TimePST,TemperatureF,Dew PointF,Humidity,Sea Level PressureIn,VisibilityMPH,Wind Direction,Wind SpeedMPH,Gust SpeedMPH,PrecipitationIn,Events,Conditions,WindDirDegrees,DateUTC
12:53 AM,50.0,44.1,80,30.30,10.0,Calm,Calm,-,N/A,,Clear,0,2013-11-14 08:53:00
1:50 AM,48.2,44.6,87,30.27,10.0,Calm,Calm,-,N/A,,Mostly Cloudy,0,2013-11-14 09:50:00
1:53 AM,48.9,44.1,83,30.27,10.0,Calm,Calm,-,N/A,,Mostly Cloudy,0,2013-11-14 09:53:00
2:20 AM,48.2,42.8,82,30.26,10.0,Calm,Calm,-,N/A,,Scattered Clouds,0,2013-11-14 10:20:00
2:45 AM,48.2,42.8,82,30.25,10.0,Calm,Calm,-,N/A,,Mostly Cloudy,0,2013-11-14 10:45:00
2:53 AM,50.0,44.1,80,30.25,10.0,Calm,Calm,-,N/A,,Mostly Cloudy,0,2013-11-14 10:53:00
3:48 AM,50.0,44.6,82,30.23,10.0,Calm,Calm,-,N/A,,Mostly Cloudy,0,2013-11-14 11:48:00
3:53 AM,50.0,44.1,80,30.23,10.0,Calm,Calm,-,N/A,,Mostly Cloudy,0,2013-11-14 11:53:00
4:09 AM,48.2,42.8,82,30.22,10.0,Calm,Calm,-,N/A,,Partly Cloudy,0,2013-11-14 12:09:00
4:53 AM,48.0,43.0,83,30.22,10.0,Variable,4.6,-,N/A,,Partly Cloudy,0,2013-11-14 12:53:00
5:27 AM,48.2,42.8,82,30.22,10.0,Calm,Calm,-,N/A,,Mostly Cloudy,0,2013-11-14 13:27:00
5:53 AM,48.9,44.1,83,30.21,10.0,Calm,Calm,-,N/A,,Mostly Cloudy,0,2013-11-14 13:53:00
6:53 AM,48.9,44.1,83,30.20,10.0,SSE,4.6,-,N/A,,Mostly Cloudy,150,2013-11-14 14:53:00
7:53 AM,48.9,44.1,83,30.20,10.0,SE,6.9,-,N/A,,Overcast,140,2013-11-14 15:53:00
8:53 AM,50.0,45.0,83,30.19,10.0,SE,5.8,-,0.01,Rain,Light Rain,140,2013-11-14 16:53:00
9:53 AM,50.0,45.0,83,30.19,10.0,SE,6.9,-,0.00,,Overcast,130,2013-11-14 17:53:00
10:53 AM,50.0,44.1,80,30.17,10.0,South,5.8,-,N/A,,Mostly Cloudy,180,2013-11-14 18:53:00
11:53 AM,52.0,46.0,80,30.15,10.0,Calm,Calm,-,N/A,,Overcast,0,2013-11-14 19:53:00
12:11 PM,51.8,44.6,76,30.15,10.0,Calm,Calm,-,N/A,,Overcast,0,2013-11-14 20:11:00
12:42 PM,51.8,44.6,76,30.14,10.0,SSW,5.8,-,N/A,,Overcast,210,2013-11-14 20:42:00
12:53 PM,52.0,44.1,74,30.14,10.0,SW,4.6,-,N/A,,Overcast,230,2013-11-14 20:53:00
1:53 PM,51.1,44.1,77,30.13,10.0,WSW,4.6,-,N/A,,Overcast,250,2013-11-14 21:53:00
2:53 PM,51.1,44.1,77,30.12,10.0,WSW,3.5,-,0.00,Rain,Light Rain,250,2013-11-14 22:53:00
3:53 PM,51.1,43.0,74,30.13,10.0,Calm,Calm,-,0.00,,Mostly Cloudy,0,2013-11-14 23:53:00
4:53 PM,50.0,42.1,74,30.12,10.0,Calm,Calm,-,N/A,,Mostly Cloudy,0,2013-11-15 00:53:00
5:53 PM,48.9,42.1,77,30.12,10.0,Calm,Calm,-,N/A,,Partly Cloudy,0,2013-11-15 01:53:00
6:53 PM,48.0,42.1,80,30.11,10.0,SE,3.5,-,N/A,,Partly Cloudy,140,2013-11-15 02:53:00
7:53 PM,45.0,39.9,82,30.10,10.0,Calm,Calm,-,N/A,,Scattered Clouds,0,2013-11-15 03:53:00
8:53 PM,44.1,39.0,82,30.09,10.0,Calm,Calm,-,N/A,,Scattered Clouds,0,2013-11-15 04:53:00
9:53 PM,44.1,39.9,85,30.10,10.0,SSE,4.6,-,N/A,,Overcast,150,2013-11-15 05:53:00
9:58 PM,44.6,39.2,81,30.10,10.0,SSE,3.5,-,N/A,,Overcast,150,2013-11-15 05:58:00
10:53 PM,45.0,41.0,86,30.09,10.0,SE,5.8,-,N/A,,Overcast,130,2013-11-15 06:53:00
11:53 PM,45.0,41.0,86,30.07,10.0,SSE,3.5,-,N/A,,Mostly Cloudy,150,2013-11-15 07:53:00